When you browse on this site, cookies collect data to enhance your experience and personalize the content and advertising you see.
Visit our Privacy Policy to learn more. By continuing to use the site, you agree to this use of cookies and data.
  • In United Kingdom
  • List of Countries
  • For 7 days
  • Water Temperature
  • Satellite Maps
  • Weather Map
  • Weather Widgets
  • user-avatar
    Login

    Hourly Weather Odienne

    Today, 23 July, Tuesday

    Time Temperature Precipitation Wind Pressure Humidity
    00:00 +22°C° 0 mm 3 mps 723 mmHg 96%
    01:00 +23°C° 0 mm 2 mps 723 mmHg 96%
    02:00 +23°C° 0 mm 2 mps 723 mmHg 96%
    03:00 +23°C° 0 mm 2 mps 723 mmHg 96%
    04:00 +23°C° 0 mm 2 mps 723 mmHg 96%
    05:00 +23°C° 0 mm 1 mps 723 mmHg 96%
    06:00 +24°C° 0 mm 2 mps 723 mmHg 93%
    07:00 +25°C° 0 mm 2 mps 724 mmHg 90%
    08:00 +26°C° 0 mm 3 mps 724 mmHg 86%
    09:00 +27°C° 0.4 mm 3 mps 724 mmHg 84%
    10:00 +28°C° 0.4 mm 3 mps 724 mmHg 82%
    11:00 +28°C° 0.4 mm 2 mps 724 mmHg 80%
    12:00 +28°C° 1.4 mm 2 mps 723 mmHg 81%
    13:00 +29°C° 1.4 mm 2 mps 723 mmHg 82%
    14:00 +29°C° 1.4 mm 2 mps 722 mmHg 84%
    15:00 +28°C° 1.2 mm 2 mps 722 mmHg 86%
    16:00 +28°C° 1.2 mm 1 mps 722 mmHg 88%
    17:00 +27°C° 1.2 mm 1 mps 721 mmHg 90%
    18:00 +26°C° 1.6 mm 2 mps 722 mmHg 91%
    19:00 +26°C° 1.6 mm 2 mps 723 mmHg 92%
    20:00 +25°C° 1.6 mm 2 mps 723 mmHg 93%
    21:00 +24°C° 2.7 mm 2 mps 723 mmHg 94%
    22:00 +24°C° 2.7 mm 2 mps 723 mmHg 94%
    23:00 +24°C° 2.7 mm 2 mps 724 mmHg 95%

    Tomorrow, 24 July, Wednesday

    Time Temperature Precipitation Wind Pressure Humidity
    00:00 +24°C° 3.4 mm 2 mps 723 mmHg 95%
    01:00 +24°C° 3.4 mm 2 mps 723 mmHg 96%
    02:00 +23°C° 3.4 mm 1 mps 723 mmHg 97%
    03:00 +23°C° 1 mm 1 mps 723 mmHg 97%
    04:00 +23°C° 1 mm 1 mps 723 mmHg 97%
    05:00 +23°C° 1 mm 1 mps 723 mmHg 97%
    06:00 +23°C° 0.1 mm 1 mps 724 mmHg 96%
    07:00 +24°C° 0.1 mm 1 mps 724 mmHg 95%
    08:00 +24°C° 0.1 mm 1 mps 725 mmHg 94%
    09:00 +25°C° 1.2 mm 1 mps 725 mmHg 92%
    10:00 +26°C° 1.2 mm 1 mps 725 mmHg 91%
    11:00 +26°C° 1.2 mm 1 mps 725 mmHg 90%
    12:00 +27°C° 2.3 mm 1 mps 724 mmHg 89%
    13:00 +27°C° 2.3 mm 1 mps 723 mmHg 88%
    14:00 +27°C° 2.3 mm 1 mps 723 mmHg 88%
    15:00 +27°C° 2.1 mm 1 mps 723 mmHg 89%
    16:00 +27°C° 2.1 mm 1 mps 722 mmHg 91%
    17:00 +26°C° 2.1 mm 1 mps 722 mmHg 93%
    18:00 +25°C° 0.7 mm 1 mps 723 mmHg 93%
    19:00 +23°C° 0.7 mm 0 mps 723 mmHg 94%
    20:00 +22°C° 0.7 mm 0 mps 724 mmHg 95%
    21:00 +24°C° 0.5 mm 1 mps 724 mmHg 95%
    22:00 +23°C° 0.5 mm 1 mps 724 mmHg 96%
    23:00 +23°C° 0.5 mm 2 mps 724 mmHg 97%

    Day after tomorrow, 25 July, Thursday

    Time Temperature Precipitation Wind Pressure Humidity
    00:00 +23°C° 0.2 mm 1 mps 724 mmHg 97%
    01:00 +23°C° 0.2 mm 1 mps 724 mmHg 97%
    02:00 +23°C° 0.2 mm 1 mps 723 mmHg 97%
    03:00 +23°C° 0 mm 1 mps 724 mmHg 97%
    04:00 +23°C° 0 mm 1 mps 724 mmHg 97%
    05:00 +23°C° 0 mm 1 mps 724 mmHg 97%
    06:00 +24°C° 0.1 mm 1 mps 724 mmHg 95%
    07:00 +24°C° 0.1 mm 1 mps 725 mmHg 94%
    08:00 +25°C° 0.1 mm 1 mps 725 mmHg 92%
    09:00 +26°C° 0.4 mm 1 mps 725 mmHg 87%
    10:00 +27°C° 0.4 mm 2 mps 725 mmHg 82%
    11:00 +29°C° 0.4 mm 2 mps 724 mmHg 77%
    12:00 +29°C° 0.5 mm 2 mps 724 mmHg 77%
    13:00 +29°C° 0.5 mm 1 mps 723 mmHg 76%
    14:00 +30°C° 0.5 mm 1 mps 722 mmHg 75%
    15:00 +29°C° 0.1 mm 1 mps 722 mmHg 78%
    16:00 +29°C° 0.1 mm 1 mps 722 mmHg 81%
    17:00 +28°C° 0.1 mm 1 mps 722 mmHg 84%
    18:00 +27°C° 0.1 mm 1 mps 722 mmHg 87%
    19:00 +26°C° 0.1 mm 1 mps 723 mmHg 89%
    20:00 +23°C° 0.1 mm 0 mps 723 mmHg 92%
    21:00 +25°C° 1.9 mm 1 mps 723 mmHg 93%
    22:00 +24°C° 1.9 mm 1 mps 724 mmHg 95%
    23:00 +24°C° 1.9 mm 1 mps 724 mmHg 96%

    26 July, Friday

    Time Temperature Precipitation Wind Pressure Humidity
    00:00 +24°C° 2.2 mm 1 mps 723 mmHg 96%
    01:00 +24°C° 2.2 mm 2 mps 723 mmHg 96%
    02:00 +24°C° 2.2 mm 2 mps 723 mmHg 96%
    03:00 +23°C° 0.1 mm 2 mps 723 mmHg 97%
    04:00 +23°C° 0.1 mm 2 mps 723 mmHg 97%
    05:00 +23°C° 0.1 mm 1 mps 723 mmHg 98%
    06:00 +24°C° 0 mm 2 mps 724 mmHg 94%
    07:00 +25°C° 0 mm 2 mps 724 mmHg 91%
    08:00 +26°C° 0 mm 2 mps 725 mmHg 88%
    09:00 +27°C° 1.2 mm 2 mps 725 mmHg 87%
    10:00 +27°C° 1.2 mm 2 mps 725 mmHg 87%
    11:00 +28°C° 1.2 mm 1 mps 724 mmHg 86%
    12:00 +28°C° 2.2 mm 1 mps 724 mmHg 86%
    13:00 +28°C° 2.2 mm 1 mps 723 mmHg 87%
    14:00 +28°C° 2.2 mm 1 mps 722 mmHg 87%
    15:00 +25°C° 2 mm 0 mps 722 mmHg 90%
    16:00 +24°C° 2 mm 0 mps 722 mmHg 92%
    17:00 +23°C° 2 mm 0 mps 722 mmHg 95%
    18:00 +23°C° 0.2 mm 0 mps 723 mmHg 95%
    19:00 +24°C° 0.2 mm 1 mps 723 mmHg 96%
    20:00 +24°C° 0.2 mm 1 mps 724 mmHg 96%
    21:00 +24°C° 0 mm 1 mps 724 mmHg 96%
    22:00 +24°C° 0 mm 1 mps 724 mmHg 96%
    23:00 +24°C° 0 mm 1 mps 724 mmHg 96%

    27 July, Saturday

    Time Temperature Precipitation Wind Pressure Humidity
    00:00 +24°C° 0 mm 1 mps 724 mmHg 96%
    01:00 +23°C° 0 mm 1 mps 723 mmHg 97%
    02:00 +23°C° 0 mm 1 mps 723 mmHg 97%
    03:00 +23°C° 0 mm 1 mps 723 mmHg 97%
    04:00 +23°C° 0 mm 1 mps 724 mmHg 97%
    05:00 +23°C° 0 mm 1 mps 724 mmHg 97%
    06:00 +24°C° 0 mm 1 mps 724 mmHg 95%
    07:00 +25°C° 0 mm 1 mps 725 mmHg 93%
    08:00 +26°C° 0 mm 2 mps 725 mmHg 90%
    09:00 +27°C° 0.4 mm 2 mps 725 mmHg 85%
    10:00 +28°C° 0.4 mm 2 mps 725 mmHg 80%
    11:00 +29°C° 0.4 mm 2 mps 724 mmHg 75%
    12:00 +30°C° 1.1 mm 2 mps 724 mmHg 75%
    13:00 +30°C° 1.1 mm 2 mps 723 mmHg 75%
    14:00 +30°C° 1.1 mm 1 mps 723 mmHg 76%
    15:00 +29°C° 1.7 mm 1 mps 722 mmHg 80%
    16:00 +29°C° 1.7 mm 1 mps 722 mmHg 84%
    17:00 +28°C° 1.7 mm 1 mps 722 mmHg 88%
    18:00 +27°C° 1.7 mm 1 mps 722 mmHg 89%
    19:00 +26°C° 1.7 mm 1 mps 723 mmHg 91%
    20:00 +25°C° 1.7 mm 1 mps 723 mmHg 92%
    21:00 +24°C° 1.4 mm 1 mps 724 mmHg 92%
    22:00 +24°C° 1.4 mm 1 mps 724 mmHg 93%
    23:00 +24°C° 1.4 mm 1 mps 724 mmHg 93%

    28 July, Sunday

    Time Temperature Precipitation Wind Pressure Humidity
    00:00 +24°C° 2.2 mm 1 mps 724 mmHg 94%
    01:00 +23°C° 2.2 mm 1 mps 724 mmHg 96%
    02:00 +23°C° 2.2 mm 1 mps 723 mmHg 97%
    03:00 +23°C° 2 mm 1 mps 724 mmHg 98%
    04:00 +23°C° 2 mm 1 mps 724 mmHg 98%
    05:00 +23°C° 2 mm 1 mps 724 mmHg 98%
    06:00 +24°C° 0.2 mm 1 mps 724 mmHg 96%
    07:00 +24°C° 0.2 mm 1 mps 725 mmHg 93%
    08:00 +25°C° 0.2 mm 1 mps 725 mmHg 91%
    09:00 +26°C° 0.9 mm 1 mps 725 mmHg 90%
    10:00 +27°C° 0.9 mm 1 mps 725 mmHg 88%
    11:00 +28°C° 0.9 mm 2 mps 725 mmHg 87%
    12:00 +28°C° 1.3 mm 1 mps 724 mmHg 86%
    13:00 +28°C° 1.3 mm 1 mps 723 mmHg 85%
    14:00 +29°C° 1.3 mm 1 mps 723 mmHg 84%
    15:00 +26°C° 0.7 mm 0 mps 722 mmHg 86%
    16:00 +26°C° 0.7 mm 0 mps 722 mmHg 89%
    17:00 +25°C° 0.7 mm 0 mps 722 mmHg 91%
    18:00 +24°C° 0.7 mm 0 mps 722 mmHg 92%
    19:00 +23°C° 0.7 mm 0 mps 723 mmHg 94%
    20:00 +22°C° 0.7 mm 0 mps 724 mmHg 95%
    21:00 +22°C° 0.5 mm 0 mps 724 mmHg 95%
    22:00 +22°C° 0.5 mm 0 mps 724 mmHg 95%
    23:00 +22°C° 0.5 mm 0 mps 724 mmHg 95%
    Show more